SVA260 LTFM-OEJN

Flight info

Callsign SVA260
Flight time 3h 14m
Altitude 37000
Route RATVU1D/35L RATVU UT35 AYT UM855 TOMBI M855 RASDA A16 CVO A727 NABED T55 DEDLU M999 MUVOL
Aircraft B77W/H-SDE1E2E3FGHIJ2J3J4J5M1RWXYZ/LB1D1

Departure

Time 2026-05-04 14:17
Airport İstanbul Airport (LTFM)

Arrival

Time 2026-05-04 17:32
Airport King Abdulaziz International Airport (OEJN)
Time Latitude Longitude Altitude Speed Heading
2026-05-04 13:35 41.26246 28.73640 318 ft 0 kts 71°
2026-05-04 14:08 41.26243 28.73630 318 ft 4 kts 72°
2026-05-04 14:08 41.26235 28.73596 318 ft 4 kts 77°
2026-05-04 14:09 41.26234 28.73530 318 ft 4 kts 110°
2026-05-04 14:09 41.26248 28.73503 317 ft 4 kts 152°
2026-05-04 14:10 41.26295 28.73487 318 ft 0 kts 161°
2026-05-04 14:14 41.26273 28.73494 318 ft 9 kts 170°
2026-05-04 14:14 41.26221 28.73365 318 ft 9 kts 268°
2026-05-04 14:14 41.26219 28.73271 318 ft 11 kts 269°
2026-05-04 14:15 41.26217 28.73060 317 ft 11 kts 269°
2026-05-04 14:15 41.26217 28.72984 317 ft 0 kts 269°
2026-05-04 14:16 41.26216 28.72940 317 ft 17 kts 269°
2026-05-04 14:16 41.26214 28.72708 318 ft 25 kts 269°
2026-05-04 14:17 41.26520 28.72519 318 ft 73 kts 359°
2026-05-04 14:17 41.27299 28.72503 301 ft 148 kts 359°
2026-05-04 14:17 41.29791 28.72492 1275 ft 186 kts
2026-05-04 14:18 41.31110 28.72537 1901 ft 197 kts
2026-05-04 14:18 41.34126 28.72590 2788 ft 236 kts 357°
2026-05-04 14:19 41.36974 28.70520 4498 ft 238 kts 313°
2026-05-04 14:19 41.38141 28.68883 4978 ft 253 kts 317°
2026-05-04 14:19 41.39249 28.67028 4929 ft 261 kts 296°
2026-05-04 14:19 41.39478 28.64674 5028 ft 260 kts 261°
2026-05-04 14:20 41.39015 28.62325 5519 ft 267 kts 259°
2026-05-04 14:20 41.38729 28.59860 5982 ft 271 kts 266°
2026-05-04 14:20 41.38293 28.57430 6389 ft 276 kts 242°
2026-05-04 14:21 41.35003 28.55047 7329 ft 290 kts 179°
2026-05-04 14:21 41.32994 28.55172 7785 ft 290 kts 179°
2026-05-04 14:21 41.30960 28.55202 8255 ft 294 kts 180°
2026-05-04 14:21 41.28897 28.55223 8714 ft 298 kts 180°
2026-05-04 14:22 41.26814 28.55259 9167 ft 299 kts 178°
2026-05-04 14:22 41.24822 28.55775 9554 ft 296 kts 152°
2026-05-04 14:22 41.23205 28.57420 10030 ft 294 kts 133°
2026-05-04 14:22 41.21717 28.59359 10526 ft 303 kts 133°
2026-05-04 14:23 41.18673 28.63287 11430 ft 306 kts 133°
2026-05-04 14:23 41.17139 28.65261 11868 ft 307 kts 133°
2026-05-04 14:23 41.15581 28.67193 12305 ft 307 kts 140°
2026-05-04 14:24 41.13670 28.68575 12762 ft 318 kts 155°
2026-05-04 14:24 41.11614 28.69698 13240 ft 321 kts 156°
2026-05-04 14:24 41.09544 28.70822 13694 ft 322 kts 156°
2026-05-04 14:24 41.07463 28.71965 14138 ft 324 kts 155°
2026-05-04 14:25 41.05385 28.73121 14590 ft 325 kts 155°
2026-05-04 14:25 41.01206 28.75479 15490 ft 326 kts 155°
2026-05-04 14:25 40.99112 28.76668 15936 ft 327 kts 155°
2026-05-04 14:26 40.97020 28.77859 16394 ft 329 kts 155°
2026-05-04 14:26 40.94911 28.79066 16841 ft 331 kts 155°
2026-05-04 14:26 40.92789 28.80280 17293 ft 334 kts 155°
2026-05-04 14:26 40.90648 28.81507 17752 ft 336 kts 155°
2026-05-04 14:27 40.88495 28.82739 18219 ft 339 kts 155°
2026-05-04 14:27 40.86326 28.83981 18661 ft 341 kts 155°
2026-05-04 14:27 40.84167 28.85213 19111 ft 343 kts 155°
2026-05-04 14:27 40.81967 28.86469 19565 ft 345 kts 154°
2026-05-04 14:28 40.79729 28.87747 20014 ft 348 kts 154°
2026-05-04 14:28 40.77501 28.89017 20474 ft 350 kts 154°
2026-05-04 14:28 40.75262 28.90292 20932 ft 352 kts 154°
2026-05-04 14:28 40.73009 28.91574 21377 ft 354 kts 154°
2026-05-04 14:29 40.68485 28.94149 22281 ft 358 kts 154°
2026-05-04 14:29 40.63878 28.96764 23187 ft 363 kts 154°
2026-05-04 14:30 40.61547 28.98086 23640 ft 366 kts 154°
2026-05-04 14:30 40.59197 28.99418 24101 ft 369 kts 154°
2026-05-04 14:30 40.54448 29.02105 24995 ft 374 kts 154°
2026-05-04 14:31 40.52052 29.03460 25448 ft 376 kts 154°
2026-05-04 14:31 40.47204 29.06200 26023 ft 385 kts 154°
2026-05-04 14:32 40.42287 29.08972 26009 ft 382 kts 154°
2026-05-04 14:32 40.39856 29.10340 26011 ft 380 kts 154°
2026-05-04 14:32 40.37427 29.11705 26012 ft 379 kts 154°
2026-05-04 14:32 40.35003 29.13066 26017 ft 379 kts 154°
2026-05-04 14:33 40.32590 29.14422 26017 ft 378 kts 154°
2026-05-04 14:33 40.30163 29.15785 26022 ft 378 kts 154°
2026-05-04 14:33 40.27743 29.17144 26021 ft 378 kts 154°
2026-05-04 14:33 40.25322 29.18502 26021 ft 379 kts 154°
2026-05-04 14:34 40.22894 29.19862 26020 ft 380 kts 154°
2026-05-04 14:34 40.20465 29.21222 26022 ft 380 kts 154°
2026-05-04 14:34 40.18028 29.22584 26021 ft 381 kts 154°
2026-05-04 14:34 40.15585 29.23951 26025 ft 382 kts 154°
2026-05-04 14:35 40.13141 29.25318 26024 ft 383 kts 154°
2026-05-04 14:35 40.10690 29.26686 26028 ft 383 kts 154°
2026-05-04 14:35 40.08235 29.28053 26024 ft 384 kts 154°
2026-05-04 14:35 40.05770 29.29425 26016 ft 385 kts 154°
2026-05-04 14:36 40.03306 29.30797 26015 ft 384 kts 154°
2026-05-04 14:36 40.00845 29.32165 26015 ft 384 kts 154°
2026-05-04 14:36 39.98386 29.33532 26020 ft 384 kts 154°
2026-05-04 14:36 39.95932 29.34894 26017 ft 384 kts 154°
2026-05-04 14:37 39.93513 29.36239 26009 ft 383 kts 154°
2026-05-04 14:37 39.91061 29.37598 26022 ft 382 kts 154°
2026-05-04 14:37 39.88620 29.38947 26019 ft 381 kts 155°
2026-05-04 14:37 39.86168 29.40295 26014 ft 382 kts 155°
2026-05-04 14:38 39.83723 29.41639 26014 ft 381 kts 155°
2026-05-04 14:38 39.81277 29.42983 26018 ft 381 kts 155°
2026-05-04 14:38 39.78829 29.44327 26017 ft 381 kts 155°
2026-05-04 14:38 39.76388 29.45667 26021 ft 381 kts 155°
2026-05-04 14:39 39.73940 29.47010 26016 ft 382 kts 155°
2026-05-04 14:39 39.72319 29.47899 26020 ft 382 kts 155°
2026-05-04 14:39 39.69867 29.49243 26029 ft 382 kts 155°
2026-05-04 14:40 39.64957 29.51930 26022 ft 384 kts 155°
2026-05-04 14:40 39.62487 29.53251 26021 ft 384 kts 156°
2026-05-04 14:40 39.59995 29.54516 26019 ft 385 kts 156°
2026-05-04 14:40 39.57492 29.55757 26013 ft 385 kts 157°
2026-05-04 14:41 39.54993 29.56990 26015 ft 385 kts 157°
2026-05-04 14:41 39.52487 29.58230 26016 ft 384 kts 157°
2026-05-04 14:41 39.47483 29.60714 26003 ft 385 kts 157°
2026-05-04 14:42 39.42481 29.63205 25996 ft 385 kts 157°
2026-05-04 14:42 39.39980 29.64451 26003 ft 385 kts 157°
2026-05-04 14:42 39.37482 29.65695 26000 ft 385 kts 157°
2026-05-04 14:43 39.34986 29.66936 25998 ft 385 kts 157°
2026-05-04 14:43 39.32487 29.68179 25996 ft 385 kts 157°
2026-05-04 14:43 39.29994 29.69418 25999 ft 384 kts 157°
2026-05-04 14:43 39.27495 29.70655 26001 ft 384 kts 157°
2026-05-04 14:44 39.25028 29.71878 25999 ft 384 kts 157°
2026-05-04 14:44 39.22537 29.73115 25999 ft 384 kts 157°
2026-05-04 14:44 39.20040 29.74353 26001 ft 384 kts 157°
2026-05-04 14:44 39.17542 29.75589 26133 ft 386 kts 157°
2026-05-04 14:45 39.15017 29.76838 26772 ft 390 kts 157°
2026-05-04 14:45 39.12477 29.78093 27456 ft 392 kts 157°
2026-05-04 14:45 39.09922 29.79354 28104 ft 395 kts 157°
2026-05-04 14:45 39.07341 29.80627 28704 ft 399 kts 157°
2026-05-04 14:46 39.04739 29.81910 29281 ft 403 kts 157°
2026-05-04 14:46 39.02085 29.83218 29539 ft 417 kts 157°
2026-05-04 14:46 38.99326 29.84578 29649 ft 432 kts 157°
2026-05-04 14:46 38.96467 29.85986 29762 ft 447 kts 157°
2026-05-04 14:47 38.93512 29.87438 29862 ft 462 kts 157°
2026-05-04 14:47 38.90470 29.88931 29979 ft 475 kts 157°
2026-05-04 14:47 38.87346 29.90455 30077 ft 487 kts 158°
2026-05-04 14:47 38.84131 29.91996 30212 ft 497 kts 158°
2026-05-04 14:48 38.80856 29.93547 30425 ft 504 kts 158°
2026-05-04 14:48 38.77556 29.95109 30748 ft 507 kts 158°
2026-05-04 14:48 38.74246 29.96672 31163 ft 508 kts 159°
2026-05-04 14:48 38.70929 29.98239 31639 ft 507 kts 159°
2026-05-04 14:49 38.67627 29.99798 32138 ft 505 kts 159°
2026-05-04 14:49 38.64338 30.01353 32578 ft 504 kts 159°
2026-05-04 14:49 38.61046 30.02911 32956 ft 505 kts 159°
2026-05-04 14:49 38.57748 30.04471 33338 ft 505 kts 159°
2026-05-04 14:50 38.54451 30.06029 33732 ft 505 kts 160°
2026-05-04 14:50 38.51159 30.07582 34135 ft 503 kts 160°
2026-05-04 14:50 38.47880 30.09128 34510 ft 503 kts 160°
2026-05-04 14:50 38.44597 30.10673 34839 ft 503 kts 160°
2026-05-04 14:51 38.41308 30.12220 35182 ft 503 kts 160°
2026-05-04 14:51 38.38026 30.13763 35547 ft 502 kts 160°
2026-05-04 14:51 38.34790 30.15282 35881 ft 502 kts 160°
2026-05-04 14:51 38.31511 30.16804 36181 ft 502 kts 161°
2026-05-04 14:52 38.28222 30.18298 36465 ft 502 kts 161°
2026-05-04 14:52 38.24937 30.19784 36749 ft 502 kts 161°
2026-05-04 14:52 38.21648 30.21283 37028 ft 502 kts 161°
2026-05-04 14:52 38.18356 30.22796 36981 ft 502 kts 161°
2026-05-04 14:53 38.11877 30.25784 36970 ft 490 kts 161°
2026-05-04 14:53 38.05468 30.28729 36974 ft 490 kts 161°
2026-05-04 14:54 37.99050 30.31663 36978 ft 491 kts 161°
2026-05-04 14:54 37.92605 30.34577 36973 ft 492 kts 161°
2026-05-04 14:55 37.86152 30.37489 36968 ft 493 kts 161°
2026-05-04 14:55 37.79682 30.40404 36969 ft 493 kts 161°
2026-05-04 14:56 37.73252 30.43300 36961 ft 494 kts 161°
2026-05-04 14:56 37.66780 30.46208 36963 ft 493 kts 161°
2026-05-04 14:57 37.60310 30.49114 36960 ft 493 kts 161°
2026-05-04 14:57 37.53847 30.52008 36960 ft 493 kts 161°
2026-05-04 14:58 37.47384 30.54896 36954 ft 493 kts 161°
2026-05-04 14:58 37.40920 30.57782 36946 ft 492 kts 161°
2026-05-04 14:59 37.34468 30.60654 36938 ft 492 kts 161°
2026-05-04 15:00 37.24794 30.64952 36931 ft 492 kts 162°
2026-05-04 15:00 37.18349 30.67813 36927 ft 491 kts 162°
2026-05-04 15:01 37.08676 30.72092 36913 ft 491 kts 162°
2026-05-04 15:01 37.02240 30.74932 36918 ft 490 kts 162°
2026-05-04 15:02 36.95804 30.77747 36909 ft 489 kts 164°
2026-05-04 15:02 36.89161 30.79479 36929 ft 487 kts 175°
2026-05-04 15:03 36.82420 30.79838 36919 ft 485 kts 181°
2026-05-04 15:03 36.75660 30.80009 36921 ft 485 kts 180°
2026-05-04 15:04 36.69522 30.80200 36906 ft 486 kts 180°
2026-05-04 15:04 36.62768 30.80442 36900 ft 486 kts 180°
2026-05-04 15:05 36.56017 30.80687 36905 ft 486 kts 180°
2026-05-04 15:05 36.49252 30.80928 36911 ft 485 kts 180°
2026-05-04 15:06 36.42518 30.81168 36911 ft 486 kts 180°
2026-05-04 15:07 36.32376 30.81502 36906 ft 486 kts 180°
2026-05-04 15:07 36.25617 30.81713 36906 ft 486 kts 180°
2026-05-04 15:08 36.18855 30.81928 36911 ft 486 kts 180°
2026-05-04 15:08 36.12102 30.82145 36895 ft 485 kts 180°
2026-05-04 15:09 36.05344 30.82361 36902 ft 485 kts 180°
2026-05-04 15:09 35.98596 30.82678 36902 ft 485 kts 179°
2026-05-04 15:10 35.88525 30.83352 36898 ft 484 kts 179°
2026-05-04 15:11 35.78452 30.83979 36892 ft 483 kts 180°
2026-05-04 15:11 35.71750 30.84387 36903 ft 482 kts 180°
2026-05-04 15:12 35.65051 30.84795 36901 ft 482 kts 180°
2026-05-04 15:12 35.58358 30.85163 36903 ft 481 kts 181°
2026-05-04 15:13 35.51668 30.85378 36895 ft 481 kts 181°
2026-05-04 15:13 35.44966 30.85579 36895 ft 482 kts 181°
2026-05-04 15:14 35.38258 30.85800 36896 ft 482 kts 181°
2026-05-04 15:14 35.31547 30.86031 36885 ft 482 kts 181°
2026-05-04 15:15 35.24881 30.86261 36892 ft 482 kts 181°
2026-05-04 15:15 35.18129 30.86488 36901 ft 482 kts 181°
2026-05-04 15:16 35.08122 30.86814 36903 ft 481 kts 182°
2026-05-04 15:17 34.98079 30.87136 36894 ft 481 kts 182°
2026-05-04 15:17 34.88038 30.87458 36901 ft 481 kts 182°
2026-05-04 15:18 34.81346 30.87673 36889 ft 481 kts 182°
2026-05-04 15:19 34.71321 30.87993 36902 ft 480 kts 182°
2026-05-04 15:19 34.61303 30.88313 36906 ft 479 kts 182°
2026-05-04 15:20 34.54621 30.88625 36916 ft 480 kts 181°
2026-05-04 15:20 34.47955 30.88993 36929 ft 480 kts 181°
2026-05-04 15:21 34.41280 30.89342 36908 ft 480 kts 181°
2026-05-04 15:22 34.32400 30.89790 36937 ft 480 kts 182°
2026-05-04 15:22 34.22396 30.90299 36934 ft 480 kts 181°
2026-05-04 15:23 34.15720 30.90668 36937 ft 480 kts 181°
2026-05-04 15:23 34.09042 30.91041 36938 ft 481 kts 181°
2026-05-04 15:24 33.95680 30.91780 36948 ft 480 kts 182°
2026-05-04 15:25 33.89019 30.92074 36948 ft 478 kts 183°
2026-05-04 15:26 33.79064 30.92422 36954 ft 476 kts 183°
2026-05-04 15:26 33.69133 30.92786 36964 ft 476 kts 183°
2026-05-04 15:27 33.59215 30.93162 36966 ft 475 kts 183°
2026-05-04 15:28 33.49307 30.93532 36975 ft 475 kts 183°
2026-05-04 15:29 33.39394 30.93904 36982 ft 475 kts 183°
2026-05-04 15:30 33.16292 30.94767 37001 ft 474 kts 183°
2026-05-04 15:31 33.06427 30.95329 37009 ft 476 kts 180°
2026-05-04 15:32 32.89938 30.97239 37020 ft 476 kts 179°
2026-05-04 15:34 32.73469 30.99076 37027 ft 475 kts 179°
2026-05-04 15:34 32.63592 31.00171 37040 ft 474 kts 179°
2026-05-04 15:35 32.53740 31.01262 37044 ft 474 kts 180°
2026-05-04 15:36 32.43889 31.02350 37043 ft 474 kts 180°
2026-05-04 15:36 32.37323 31.03074 37049 ft 473 kts 180°
2026-05-04 15:37 32.30770 31.03796 37058 ft 473 kts 180°
2026-05-04 15:37 32.24217 31.04517 37055 ft 473 kts 180°
2026-05-04 15:38 32.17678 31.05236 37059 ft 473 kts 180°
2026-05-04 15:38 32.11129 31.05953 37066 ft 473 kts 180°
2026-05-04 15:39 32.04580 31.06671 37067 ft 472 kts 180°
2026-05-04 15:40 31.94804 31.07740 37066 ft 472 kts 180°
2026-05-04 15:40 31.88270 31.08454 37070 ft 471 kts 180°
2026-05-04 15:41 31.81743 31.09166 37074 ft 471 kts 180°
2026-05-04 15:41 31.75228 31.09875 37073 ft 470 kts 180°
2026-05-04 15:42 31.68710 31.10585 37075 ft 470 kts 180°
2026-05-04 15:42 31.62191 31.11292 37074 ft 470 kts 180°
2026-05-04 15:43 31.55674 31.11999 37075 ft 470 kts 180°
2026-05-04 15:43 31.49174 31.12923 37078 ft 472 kts 176°
2026-05-04 15:44 31.42689 31.14153 37074 ft 473 kts 176°
2026-05-04 15:44 31.36194 31.15378 37075 ft 472 kts 176°
2026-05-04 15:45 31.29704 31.16572 37083 ft 472 kts 176°
2026-05-04 15:45 31.23212 31.17763 37073 ft 472 kts 176°
2026-05-04 15:46 31.16715 31.18972 37066 ft 473 kts 176°
2026-05-04 15:46 31.10224 31.20189 37068 ft 472 kts 176°
2026-05-04 15:47 31.03734 31.21404 37065 ft 472 kts 176°
2026-05-04 15:47 30.97238 31.22618 37064 ft 472 kts 176°
2026-05-04 15:48 30.90745 31.23826 37065 ft 472 kts 176°
2026-05-04 15:48 30.81001 31.25635 37066 ft 472 kts 176°
2026-05-04 15:49 30.74512 31.26839 37061 ft 472 kts 176°
2026-05-04 15:49 30.68059 31.28034 37057 ft 472 kts 176°
2026-05-04 15:50 30.61531 31.29243 37058 ft 472 kts 176°
2026-05-04 15:50 30.55087 31.30434 37054 ft 472 kts 176°
2026-05-04 15:51 30.48607 31.31629 37057 ft 471 kts 176°
2026-05-04 15:51 30.42123 31.32819 37055 ft 471 kts 176°
2026-05-04 15:52 30.35641 31.33999 37048 ft 471 kts 176°
2026-05-04 15:52 30.29162 31.35176 37040 ft 471 kts 176°
2026-05-04 15:53 30.22690 31.36354 37046 ft 470 kts 176°
2026-05-04 15:53 30.16223 31.37527 37044 ft 470 kts 176°
2026-05-04 15:54 30.09753 31.38718 37047 ft 471 kts 174°
2026-05-04 15:54 30.03378 31.40654 37051 ft 475 kts 169°
2026-05-04 15:55 29.97037 31.42818 37052 ft 475 kts 169°
2026-05-04 15:55 29.90684 31.44952 37042 ft 475 kts 169°
2026-05-04 15:56 29.84332 31.47060 37051 ft 475 kts 169°
2026-05-04 15:56 29.77974 31.49163 37047 ft 476 kts 169°
2026-05-04 15:57 29.71602 31.51269 37045 ft 476 kts 169°
2026-05-04 15:57 29.65283 31.53352 37044 ft 476 kts 169°
2026-05-04 15:58 29.58921 31.55440 37044 ft 475 kts 169°
2026-05-04 15:58 29.52565 31.57527 37044 ft 475 kts 169°
2026-05-04 15:59 29.46202 31.59612 37047 ft 475 kts 169°
2026-05-04 15:59 29.39838 31.61695 37044 ft 475 kts 169°
2026-05-04 16:00 29.33479 31.63776 37045 ft 476 kts 169°
2026-05-04 16:00 29.27112 31.65856 37049 ft 476 kts 169°
2026-05-04 16:01 29.20742 31.67934 37045 ft 476 kts 169°
2026-05-04 16:01 29.14367 31.70010 37046 ft 476 kts 169°
2026-05-04 16:02 29.07993 31.72081 37047 ft 476 kts 169°
2026-05-04 16:03 28.98428 31.75191 37047 ft 476 kts 169°
2026-05-04 16:03 28.93082 31.76903 37045 ft 476 kts 169°
2026-05-04 16:04 28.86691 31.78926 37048 ft 476 kts 169°
2026-05-04 16:04 28.77144 31.81950 37039 ft 477 kts 169°
2026-05-04 16:05 28.70740 31.83979 37039 ft 477 kts 169°
2026-05-04 16:06 28.61149 31.87014 37033 ft 477 kts 169°
2026-05-04 16:07 28.48344 31.91057 37043 ft 478 kts 169°
2026-05-04 16:08 28.35517 31.95096 37032 ft 478 kts 169°
2026-05-04 16:09 28.19484 32.00133 37036 ft 477 kts 169°
2026-05-04 16:10 28.06680 32.04143 37028 ft 477 kts 169°
2026-05-04 16:11 27.93885 32.08197 37028 ft 477 kts 169°
2026-05-04 16:12 27.74735 32.14314 37028 ft 478 kts 169°
2026-05-04 16:13 27.61884 32.18402 37030 ft 478 kts 169°
2026-05-04 16:14 27.49114 32.22451 37021 ft 478 kts 169°
2026-05-04 16:16 27.33131 32.27663 36970 ft 481 kts 161°
2026-05-04 16:16 27.25164 32.34726 36989 ft 499 kts 133°
2026-05-04 16:17 27.20794 32.40827 36985 ft 501 kts 133°
2026-05-04 16:18 27.11978 32.53022 36971 ft 504 kts 133°
2026-05-04 16:19 27.00804 32.68141 36991 ft 503 kts 134°
2026-05-04 16:20 26.89637 32.83215 36998 ft 503 kts 134°
2026-05-04 16:22 26.78455 32.98255 36985 ft 502 kts 134°
2026-05-04 16:23 26.65067 33.16199 36975 ft 501 kts 134°
2026-05-04 16:25 26.51647 33.34115 36973 ft 501 kts 134°
2026-05-04 16:26 26.35912 33.55018 36973 ft 503 kts 134°
2026-05-04 16:28 26.24672 33.69891 36963 ft 502 kts 134°
2026-05-04 16:29 26.08887 33.90696 36951 ft 502 kts 134°
2026-05-04 16:31 25.97597 34.05519 36945 ft 502 kts 134°
2026-05-04 16:32 25.84042 34.23240 36943 ft 501 kts 135°
2026-05-04 16:33 25.74993 34.35026 36942 ft 502 kts 135°
2026-05-04 16:34 25.68201 34.43856 36944 ft 501 kts 135°
2026-05-04 16:35 25.54337 34.61161 36945 ft 498 kts 140°
2026-05-04 16:36 25.46923 34.69176 36936 ft 499 kts 140°
2026-05-04 16:37 25.39476 34.77290 36934 ft 499 kts 140°
2026-05-04 16:38 25.29594 34.88073 36935 ft 499 kts 140°
2026-05-04 16:39 25.17234 35.01521 36935 ft 499 kts 140°
2026-05-04 16:40 25.07369 35.12224 36935 ft 498 kts 140°
2026-05-04 16:41 24.94953 35.25574 36927 ft 499 kts 140°
2026-05-04 16:43 24.82522 35.38894 36916 ft 498 kts 140°
2026-05-04 16:43 24.75059 35.46874 36920 ft 499 kts 140°
2026-05-04 16:45 24.60984 35.61886 36906 ft 499 kts 140°
2026-05-04 16:46 24.48515 35.75145 36893 ft 500 kts 140°
2026-05-04 16:47 24.38520 35.85742 36888 ft 499 kts 140°
2026-05-04 16:48 24.28530 35.96309 36883 ft 499 kts 140°
2026-05-04 16:49 24.18528 36.06870 36869 ft 499 kts 140°
2026-05-04 16:50 24.08523 36.17405 36884 ft 498 kts 140°
2026-05-04 16:51 24.01024 36.25290 36904 ft 498 kts 140°
2026-05-04 16:52 23.91004 36.35797 36856 ft 500 kts 140°
2026-05-04 16:53 23.83493 36.43661 36812 ft 500 kts 140°
2026-05-04 16:54 23.73448 36.54159 36807 ft 500 kts 140°
2026-05-04 16:55 23.58402 36.69828 36798 ft 497 kts 140°
2026-05-04 16:56 23.45875 36.82845 36795 ft 497 kts 140°
2026-05-04 16:57 23.38382 36.90610 36787 ft 498 kts 140°
2026-05-04 16:58 23.28307 37.01033 36788 ft 498 kts 140°
2026-05-04 17:00 23.13272 37.16542 36787 ft 498 kts 140°
2026-05-04 17:01 23.00715 37.29459 36786 ft 497 kts 140°
2026-05-04 17:02 22.90672 37.39767 36787 ft 497 kts 140°
2026-05-04 17:03 22.83138 37.47482 36786 ft 496 kts 140°
2026-05-04 17:03 22.75665 37.55263 36787 ft 498 kts 136°
2026-05-04 17:04 22.67457 37.67464 36789 ft 502 kts 128°
2026-05-04 17:05 22.59304 37.79890 35131 ft 511 kts 128°
2026-05-04 17:06 22.55178 37.86164 33306 ft 513 kts 128°
2026-05-04 17:06 22.53102 37.89320 32325 ft 515 kts 128°
2026-05-04 17:07 22.48936 37.95652 30316 ft 519 kts 128°
2026-05-04 17:07 22.47555 37.97751 29885 ft 514 kts 128°
2026-05-04 17:07 22.44802 38.01934 28985 ft 507 kts 127°
2026-05-04 17:07 22.42789 38.04990 28323 ft 502 kts 127°
2026-05-04 17:08 22.40746 38.08087 27677 ft 497 kts 127°
2026-05-04 17:08 22.36796 38.14068 26406 ft 488 kts 127°
2026-05-04 17:08 22.34833 38.17036 25798 ft 483 kts 127°
2026-05-04 17:09 22.32893 38.19972 25174 ft 478 kts 127°
2026-05-04 17:09 22.30969 38.22881 24555 ft 473 kts 127°
2026-05-04 17:09 22.29065 38.25756 23942 ft 469 kts 127°
2026-05-04 17:10 22.25292 38.31429 22732 ft 460 kts 127°
2026-05-04 17:10 22.19764 38.39702 20967 ft 446 kts 128°
2026-05-04 17:11 22.17885 38.42348 20375 ft 442 kts 129°
2026-05-04 17:11 22.15994 38.44945 19807 ft 438 kts 129°
2026-05-04 17:11 22.12282 38.50044 19082 ft 420 kts 129°
2026-05-04 17:12 22.10512 38.52495 18896 ft 408 kts 129°
2026-05-04 17:12 22.07125 38.57199 18550 ft 386 kts 129°
2026-05-04 17:13 22.02381 38.63787 18007 ft 360 kts 129°
2026-05-04 17:14 21.97851 38.70121 16966 ft 352 kts 129°
2026-05-04 17:14 21.96357 38.72210 16623 ft 350 kts 128°
2026-05-04 17:14 21.93390 38.76357 15876 ft 347 kts 128°
2026-05-04 17:15 21.91921 38.78409 15504 ft 345 kts 128°
2026-05-04 17:15 21.89004 38.82481 14785 ft 342 kts 128°
2026-05-04 17:16 21.86115 38.86509 14103 ft 338 kts 128°
2026-05-04 17:16 21.81893 38.92395 13424 ft 321 kts 128°
2026-05-04 17:17 21.80553 38.94261 13280 ft 313 kts 128°
2026-05-04 17:17 21.77256 38.99971 12558 ft 293 kts 101°
2026-05-04 17:18 21.76879 39.02114 12341 ft 288 kts 101°
2026-05-04 17:18 21.76130 39.06187 12130 ft 268 kts 102°
2026-05-04 17:19 21.75406 39.10024 11655 ft 258 kts 102°
2026-05-04 17:19 21.74686 39.13809 10947 ft 259 kts 102°
2026-05-04 17:20 21.73962 39.17566 10278 ft 257 kts 102°
2026-05-04 17:20 21.73243 39.21294 9290 ft 252 kts 102°
2026-05-04 17:20 21.72886 39.23152 8560 ft 254 kts 102°
2026-05-04 17:21 21.70894 39.26046 7182 ft 248 kts 155°
2026-05-04 17:21 21.67716 39.27366 5982 ft 242 kts 162°
2026-05-04 17:22 21.66131 39.27972 5388 ft 241 kts 162°
2026-05-04 17:22 21.64567 39.28574 4927 ft 234 kts 161°
2026-05-04 17:23 21.59974 39.30364 4091 ft 246 kts 161°
2026-05-04 17:23 21.58379 39.31025 3771 ft 244 kts 159°
2026-05-04 17:23 21.55237 39.32374 3173 ft 241 kts 160°
2026-05-04 17:24 21.53694 39.33032 3018 ft 233 kts 159°
2026-05-04 17:24 21.49261 39.34929 2896 ft 234 kts 160°
2026-05-04 17:25 21.47722 39.35477 2884 ft 233 kts 172°
2026-05-04 17:25 21.44599 39.35016 2877 ft 229 kts 208°
2026-05-04 17:26 21.42972 39.32367 2526 ft 218 kts 279°
2026-05-04 17:26 21.45906 39.28690 2382 ft 225 kts 319°
2026-05-04 17:27 21.48256 39.26543 2221 ft 220 kts 319°
2026-05-04 17:27 21.50642 39.24507 2097 ft 221 kts 330°
2026-05-04 17:28 21.53388 39.23284 1984 ft 197 kts 339°
2026-05-04 17:29 21.56501 39.22060 1746 ft 172 kts 339°
2026-05-04 17:29 21.59897 39.20720 1475 ft 162 kts 339°
2026-05-04 17:30 21.62805 39.19558 899 ft 143 kts 339°
2026-05-04 17:31 21.64655 39.18832 516 ft 142 kts 339°
2026-05-04 17:31 21.67441 39.17736 35 ft 132 kts 340°
2026-05-04 17:32 21.68615 39.17274 32 ft 49 kts 339°
2026-05-04 17:33 21.68917 39.17033 35 ft 0 kts 310°
2026-05-04 17:33 21.68921 39.17027 35 ft 2 kts 310°
2026-05-04 17:34 21.68920 39.16931 35 ft 8 kts 194°
2026-05-04 17:34 21.68864 39.16940 36 ft 10 kts 163°
2026-05-04 17:35 21.68719 39.16996 35 ft 3 kts 159°
2026-05-04 17:35 21.68639 39.17029 32 ft 9 kts 160°
2026-05-04 17:35 21.68578 39.17052 31 ft 8 kts 161°
2026-05-04 17:36 21.68521 39.17050 32 ft 8 kts 206°
2026-05-04 17:36 21.68483 39.17018 32 ft 8 kts 208°
2026-05-04 17:36 21.68412 39.17019 34 ft 12 kts 165°
2026-05-04 17:36 21.68334 39.17048 35 ft 12 kts 160°
2026-05-04 17:37 21.68254 39.17079 34 ft 13 kts 160°
2026-05-04 17:37 21.68169 39.17113 34 ft 12 kts 159°
2026-05-04 17:37 21.68094 39.17144 35 ft 12 kts 159°
2026-05-04 17:37 21.68017 39.17174 35 ft 12 kts 160°
2026-05-04 17:38 21.67939 39.17204 35 ft 12 kts 160°
2026-05-04 17:38 21.67849 39.17239 35 ft 18 kts 160°
2026-05-04 17:38 21.67722 39.17289 35 ft 19 kts 160°
2026-05-04 17:38 21.67607 39.17335 34 ft 16 kts 160°
2026-05-04 17:39 21.67400 39.17416 35 ft 15 kts 160°
2026-05-04 17:39 21.67306 39.17453 35 ft 14 kts 160°
2026-05-04 17:39 21.67228 39.17470 35 ft 10 kts 199°
2026-05-04 17:40 21.67189 39.17411 35 ft 10 kts 243°
2026-05-04 17:40 21.67134 39.17351 35 ft 12 kts 220°
2026-05-04 17:40 21.67076 39.17303 35 ft 7 kts 221°
2026-05-04 17:40 21.67079 39.17235 35 ft 9 kts 296°
2026-05-04 17:41 21.67091 39.17211 35 ft 1 kts 297°
2026-05-04 17:41 21.67094 39.17205 35 ft 0 kts 297°